{"data":{"norad_id":51980,"intl_designator":"2022-025AA","name":"STARLINK-3649","alt_names":[],"object_type":"PAYLOAD","status":"ACTIVE","operator":null,"country":"US","launch_date":"2022-03-09","launch_site_code":"AFETR","launch_vehicle":null,"mission":null,"orbit_class":"UNKNOWN","rcs_meters":null,"size_class":null,"mass_kg":null,"dimensions":null,"purposes":["comms"],"wikipedia_slug":null,"has_3d_model":false,"image_url":null,"decayed_at":null,"tle_current":{"epoch":"2026-05-25T04:10:44.445792Z","epoch_age_seconds":59722,"freshness":"FRESH","line1":"1 51980U 22025AA  26145.17412553 -.00003102  00000+0 -17678-3 0  9999","line2":"2 51980  53.2138  55.7673 0001506  90.7722 269.3442 15.08854697232605","mean_motion":15.08854697,"eccentricity":0.0001506,"inclination_deg":53.2138,"raan_deg":55.7673,"arg_perigee_deg":90.7722,"mean_anomaly_deg":269.3442,"bstar":-0.00017678,"rev_number":23260,"period_min":95.436625068212,"perigee_km":538.65664045812,"apogee_km":540.74029250062,"semimajor_km":6917.8354664794,"source":"CELESTRAK","updated_at":"2026-05-25T13:38:16.995282Z"}}}